"2009-06-11 00:00:00",965103,6.494,129.2,7.475,1.737,14.33,105.6639,13.77,14.92,68.96,0,110.5,13.3,14.57,91.2
"2009-06-11 00:00:30",965104,6.101,134.9,8.03,1.443,14.79,105.6347,13.7,15.09,69.49,0,110.5,13.3,14.50,96.9
"2009-06-11 00:01:00",965105,6.191,138.3,7.351,1.413,14.4,105.6262,13.68,15.05,69.86,0,110.5,13.3,14.48,100.3
"2009-06-11 00:01:30",965106,5.087,129.1,3.761,0.968,11.27,105.5993,13.61,14.78,68.9,0,110.5,13.3,14.41,91.1
"2009-06-11 00:02:00",965107,4.112,132.1,1.397,0.102,10.82,105.5862,13.57,14.75,68.83,0,110.5,13.34,14.37,94.1
"2009-06-11 00:02:30",965108,3.917,130.2,1.176,0.254,11.08,105.5507,13.48,14.72,68.64,0,110.5,13.34,14.28,92.2
"2009-06-11 00:03:00",965109,3.459,131.5,1.184,0.12,11.21,105.5424,13.46,14.68,68.31,0,110.5,13.33,14.26,93.5
"2009-06-11 00:03:30",965110,2.833,125.1,4.037,0.299,11.5,105.5156,13.39,14.63,68.64,0,110.5,13.33,14.19,87.1
"2009-06-11 00:04:00",965111,2.659,105,6.09,0.253,12.13,105.5108,13.38,14.61,67.76,0,110.5,13.33,14.18,67.0
"2009-06-11 00:04:30",965112,2.528,93,9.43,0.242,12.53,105.495,13.34,14.54,64.75,0,110.5,13.33,14.14,55.0
"2009-06-11 00:05:00",965113,3,90.8,1.728,0.075,12.64,105.4767,13.29,14.48,60.83,0,110.5,13.33,14.09,52.8
"2009-06-11 00:05:30",965114,2.575,93.2,0.414,0.111,12.93,105.4767,13.29,14.45,58.62,0,110.5,13.33,14.09,55.2
"2009-06-11 00:06:00",965115,2.408,92.5,1.187,0.039,12.89,105.4767,13.29,14.42,57.77,0,110.5,13.33,14.09,54.5
"2009-06-11 00:06:30",965116,2.689,99.6,4.492,0.148,12.64,105.4767,13.29,14.39,57,0,110.5,13.33,14.09,61.6
"2009-06-11 00:07:00",965117,2.938,104.8,5.775,0.222,12.55,105.4767,13.29,14.37,57.29,0,110.5,13.33,14.09,66.8
"2009-06-11 00:07:30",965118,3.492,111.6,7.184,0.26,12.45,105.4733,13.28,14.35,57.78,0,110.5,13.33,14.08,73.6
"2009-06-11 00:08:00",965119,4.178,126.4,5.089,0.244,11.97,105.4733,13.28,14.35,59.25,0,110.5,13.33,14.08,88.4
"2009-06-11 00:08:30",965120,4.134,129.6,3.172,0.392,12.24,105.475,13.29,14.45,61.15,0,110.5,13.33,14.09,91.6
"2009-06-11 00:09:00",965121,5.161,141,5.813,1.241,13.85,105.4747,13.29,14.38,61.7,0,110.5,13.29,14.09,103.0
"2009-06-11 00:09:30",965122,5.582,150.3,8.83,1.377,14.5,105.475,13.29,14.61,63.96,0,110.5,13.29,14.09,112.3
"2009-06-11 00:10:00",965123,5.004,142.7,4.348,0.665,12.16,105.4739,13.29,14.44,65.04,0,110.5,13.29,14.08,104.7
"2009-06-11 00:10:30",965124,5.175,139.1,6.616,1.139,12.94,105.4629,13.26,14.47,63.03,0,110.5,13.29,14.06,101.1
"2009-06-11 00:11:00",965125,5.334,140,11.67,1.578,13.46,105.4445,13.21,14.39,61.46,0,110.5,13.28,14.01,102.0
"2009-06-11 00:11:30",965126,4.238,126.8,5.676,0.508,11.3,105.4429,13.21,14.29,60.17,0,110.5,13.32,14.00,88.8
"2009-06-11 00:12:00",965127,4.858,126.6,2.149,0.436,11.38,105.4429,13.21,14.27,59.2,0,110.5,13.32,14.00,88.6
"2009-06-11 00:12:30",965128,4.144,127.1,2.912,0.401,11.84,105.44,13.2,14.24,58.43,0,110.5,13.32,14.00,89.1
"2009-06-11 00:13:00",965129,2.757,124.6,5.496,0.308,12.17,105.4341,13.18,14.24,57.94,0,110.5,13.32,13.98,86.6
"2009-06-11 00:13:30",965130,2.658,132.5,5.838,0.29,12.28,105.4339,13.18,14.22,57.62,0,110.5,13.32,13.98,94.5
"2009-06-11 00:14:00",965131,2.884,130.5,4.711,0.364,12.42,105.4318,13.18,14.21,57.5,0,110.5,13.32,13.98,92.5
"2009-06-11 00:14:30",965132,3.063,138.6,4.4,0.229,12.27,105.4309,13.18,14.21,57.46,0,110.5,13.32,13.97,100.6
"2009-06-11 00:15:00",965133,3.206,137.9,4.387,0.393,12.18,105.4325,13.18,14.19,57.58,0,110.5,13.33,13.98,99.9
"2009-06-11 00:15:30",965134,3.389,136.6,6.008,0.349,12.2,105.4256,13.16,14.21,58.28,0,110.5,13.33,13.96,98.6
"2009-06-11 00:16:00",965135,4.27,145.8,3.616,0.395,11.91,105.4188,13.14,14.22,60.44,0,110.5,13.33,13.94,107.8
"2009-06-11 00:16:30",965136,5.215,147,10.01,1.235,13.12,105.417,13.14,14.23,64.32,0,110.5,13.29,13.94,109.0
"2009-06-11 00:17:00",965137,5.355,159.1,7.296,1.44,14.01,105.4173,13.14,14.39,66.38,0,110.5,13.29,13.94,121.1
"2009-06-11 00:17:30",965138,5.09,158.1,4.842,0.97,12.74,105.418,13.14,14.25,65.66,0,110.5,13.29,13.94,120.1
"2009-06-11 00:18:00",965139,6.382,167.7,6.559,1.351,14.7,105.4116,13.13,14.41,64.01,0,110.5,13.29,13.92,129.7
"2009-06-11 00:18:30",965140,4.764,161.4,2.394,0.159,12,105.4093,13.12,14.24,62.17,0,110.5,13.32,13.92,123.4
"2009-06-11 00:19:00",965141,4.79,163.5,1.196,0.166,11.54,105.4075,13.12,14.22,61.22,0,110.5,13.32,13.91,125.5
"2009-06-11 00:19:30",965142,4.323,158.5,5.73,0.414,11.56,105.4072,13.11,14.22,60.87,0,110.5,13.32,13.91,120.5
"2009-06-11 00:20:00",965143,3.777,156.1,5.646,0.267,11.73,105.4072,13.11,14.2,59.44,0,110.5,13.32,13.91,118.1
"2009-06-11 00:20:30",965144,4.212,166.3,3.723,0.363,11.78,105.4072,13.11,14.2,59.1,0,110.5,13.32,13.91,128.3
"2009-06-11 00:21:00",965145,4.44,174.4,5.525,0.198,12.03,105.4072,13.11,14.21,59.73,0,110.5,13.32,13.91,136.4
"2009-06-11 00:21:30",965146,4.339,181.3,3.113,0.217,12.13,105.4072,13.11,14.19,59.38,0,110.5,13.32,13.91,143.3
"2009-06-11 00:22:00",965147,3.78,170.9,4.719,0.308,12.35,105.4072,13.11,14.19,58.94,0,110.5,13.32,13.91,132.9
"2009-06-11 00:22:30",965148,2.966,161.1,2.861,0.37,12.69,105.4072,13.11,14.18,58.25,0,110.5,13.32,13.91,123.1
"2009-06-11 00:23:00",965149,2.617,162.7,6.064,0.152,12.86,105.4072,13.11,14.18,57.65,0,110.5,13.32,13.91,124.7
"2009-06-11 00:23:30",965150,2.656,174,4.257,0.244,12.83,105.4072,13.11,14.19,57.36,0,110.5,13.32,13.91,136.0
"2009-06-11 00:24:00",965151,2.172,175.3,6.689,0.252,12.91,105.4072,13.11,14.16,57.18,0,110.5,13.32,13.91,137.3
"2009-06-11 00:24:30",965152,1.722,180.8,6.381,0.167,12.98,105.4072,13.11,14.17,57.16,0,110.5,13.32,13.91,142.8
"2009-06-11 00:25:00",965153,1.525,193.7,8.05,0.425,12.89,105.412,13.13,14.17,57.13,0,110.5,13.32,13.92,155.7
"2009-06-11 00:25:30",965154,1.055,197.5,9.05,0.313,12.86,105.4331,13.18,14.19,56.56,0,110.5,13.32,13.98,159.5
"2009-06-11 00:26:00",965155,1.202,188.4,14.69,0.276,12.92,105.4402,13.2,14.18,56.46,0,110.5,13.32,14.00,150.4
"2009-06-11 00:26:30",965156,1.129,198.9,13.1,0.299,12.84,105.441,13.2,14.19,56.28,0,110.6,13.32,14.00,160.9
"2009-06-11 00:27:00",965157,1.015,214.2,13.81,0.197,12.77,105.441,13.2,14.2,56.26,0,110.6,13.32,14.00,176.2
"2009-06-11 00:27:30",965158,1.094,174.2,17.05,0.556,12.72,105.441,13.2,14.21,56.68,0,110.6,13.32,14.00,136.2
"2009-06-11 00:28:00",965159,1.974,212.5,7.526,0.351,12.42,105.4591,13.25,14.22,58.23,0,110.6,13.32,14.05,174.5
"2009-06-11 00:28:30",965160,2.163,185.7,10.75,0.4,12.6,105.4748,13.29,14.22,59.73,0,110.6,13.31,14.09,147.7
"2009-06-11 00:29:00",965161,2.24,169.7,15.39,0.367,12.65,105.4736,13.28,14.26,60.82,0,110.6,13.31,14.08,131.7
"2009-06-11 00:29:30",965162,2.27,161.4,6.254,0.297,12.26,105.4842,13.31,14.27,61.2,0,110.6,13.31,14.11,123.4
"2009-06-11 00:30:00",965163,2.183,176.7,19.03,0.343,12.31,105.5048,13.36,14.29,63.88,0,110.5,13.31,14.16,138.7
"2009-06-11 00:30:30",965164,2.449,181.3,7.6,0.192,12.52,105.5009,13.35,14.33,64.38,0,110.5,13.31,14.15,143.3
"2009-06-11 00:31:00",965165,2.845,183.1,4.501,0.353,12.67,105.5059,13.37,14.34,63.62,0,110.6,13.32,14.17,145.1
"2009-06-11 00:31:30",965166,3.75,188.5,6.002,1.185,14.02,105.5208,13.41,14.45,62.45,0,110.6,13.28,14.20,150.5
"2009-06-11 00:32:00",965167,5.312,199.8,8.26,1.164,16.91,105.5186,13.4,14.64,61.55,0,110.6,13.28,14.20,161.8
"2009-06-11 00:32:30",965168,4.09,194.6,9.73,1.492,15.37,105.516,13.39,14.63,61.15,0,110.6,13.28,14.19,156.6
"2009-06-11 00:33:00",965169,4.862,180.8,7.251,1.196,15.84,105.5211,13.41,14.58,60.4,0,110.6,13.28,14.21,142.8
"2009-06-11 00:33:30",965170,2.7,174.4,5.414,0.145,11.33,105.5324,13.44,14.42,59.36,0,110.6,13.28,14.23,136.4
"2009-06-11 00:34:00",965171,2.252,170.5,6.552,0.302,10.75,105.5404,13.46,14.43,58.7,0,110.6,13.31,14.25,132.5
"2009-06-11 00:34:30",965172,1.448,188.8,9.72,0.214,10.85,105.5447,13.47,14.45,58.3,0,110.6,13.31,14.27,150.8
"2009-06-11 00:35:00",965173,1.556,185.4,15.42,0.189,11.05,105.5482,13.48,14.45,58.03,0,110.6,13.31,14.27,147.4
"2009-06-11 00:35:30",965174,0.936,196.8,9.06,0.157,11.49,105.5456,13.47,14.47,57.85,0,110.6,13.31,14.27,158.8
"2009-06-11 00:36:00",965175,0.705,194.1,11.68,0.306,11.72,105.5454,13.47,14.48,57.77,0,110.6,13.31,14.27,156.1
"2009-06-11 00:36:30",965176,0.621,211.8,11.59,0.149,11.63,105.549,13.48,14.49,57.73,0,110.6,13.31,14.28,173.8
"2009-06-11 00:37:00",965177,0.446,196.6,15.87,0.16,11.66,105.5602,13.51,14.47,57.66,0,110.6,13.31,14.31,158.6
"2009-06-11 00:37:30",965178,0.404,160.9,16.01,0.125,11.76,105.5593,13.5,14.49,57.56,0,110.6,13.31,14.30,122.9
"2009-06-11 00:38:00",965179,1.617,192.9,7.166,0.49,11.71,105.5608,13.51,14.51,56.88,0,110.6,13.31,14.31,154.9
"2009-06-11 00:38:30",965180,2.4,181.9,4.614,0.306,11.85,105.5551,13.49,14.5,57.4,0,110.6,13.31,14.29,143.9
"2009-06-11 00:39:00",965181,2.188,178.4,8.87,0.252,12.08,105.5542,13.49,14.5,58.51,0,110.5,13.31,14.29,140.4
"2009-06-11 00:39:30",965182,1.992,179.1,10.89,0.269,12.29,105.55,13.48,14.49,58.23,0,110.6,13.31,14.28,141.1
"2009-06-11 00:40:00",965183,1.472,210.5,7.33,0.115,12.4,105.5471,13.47,14.49,57.48,0,110.6,13.31,14.27,172.5
"2009-06-11 00:40:30",965184,1.541,201.1,8.54,0.114,12.36,105.5462,13.47,14.51,57.29,0,110.6,13.31,14.27,163.1
"2009-06-11 00:41:00",965185,1.494,194.2,7.627,0.211,12.45,105.5577,13.5,14.52,57.7,0,110.6,13.31,14.30,156.2
"2009-06-11 00:41:30",965186,2.07,183.4,8.67,0.561,12.42,105.5724,13.54,14.53,58.49,0,110.6,13.31,14.34,145.4
"2009-06-11 00:42:00",965187,2.847,189.6,4.201,0.098,12.54,105.5755,13.55,14.57,60.39,0,110.6,13.31,14.35,151.6
"2009-06-11 00:42:30",965188,2.871,195.3,4.644,0.171,12.67,105.5746,13.54,14.59,62.54,0,110.6,13.31,14.34,157.3
"2009-06-11 00:43:00",965189,3.799,200.7,8.57,1.45,15.67,105.5749,13.54,14.68,63.46,0,110.6,13.27,14.34,162.7
"2009-06-11 00:43:30",965190,4.508,196.6,8.12,1.249,16.93,105.5752,13.54,14.87,63.99,0,110.5,13.27,14.34,158.6
"2009-06-11 00:44:00",965191,3.553,189.5,5.203,1.483,14.41,105.5797,13.56,14.72,64.2,0,110.6,13.26,14.36,151.5
"2009-06-11 00:44:30",965192,3.08,201.2,7.972,1.155,14.15,105.5828,13.56,14.82,64.26,0,110.6,13.26,14.36,163.2
"2009-06-11 00:45:00",965193,2.178,201,7.037,0.16,11.2,105.5907,13.58,14.63,64.35,0,110.6,13.3,14.38,163.0
"2009-06-11 00:45:30",965194,2.172,197.2,5.793,0.2,11.03,105.6042,13.62,14.65,64.34,0,110.5,13.3,14.42,159.2
"2009-06-11 00:46:00",965195,1.871,197.1,6.598,0.168,11.08,105.6073,13.63,14.65,63.78,0,110.6,13.3,14.43,159.1
"2009-06-11 00:46:30",965196,1.869,201,6.898,0.156,11.23,105.6084,13.63,14.65,63.31,0,110.6,13.3,14.43,163.0
"2009-06-11 00:47:00",965197,1.584,203.3,9.13,0.106,11.4,105.6081,13.63,14.66,62.86,0,110.6,13.3,14.43,165.3
"2009-06-11 00:47:30",965198,1.534,215.9,8.65,0.295,11.6,105.6087,13.63,14.66,62.47,0,110.6,13.3,14.43,177.9
"2009-06-11 00:48:00",965199,1.198,205.5,12.57,0.146,12.04,105.6093,13.63,14.67,61.93,0,110.6,13.3,14.43,167.5
"2009-06-11 00:48:30",965200,1.311,193.7,6.499,0.175,12.18,105.6087,13.63,14.68,61.45,0,110.6,13.3,14.43,155.7
"2009-06-11 00:49:00",965201,1.662,213.9,12.9,0.239,12.47,105.6081,13.63,14.66,61.29,0,110.6,13.3,14.43,175.9
"2009-06-11 00:49:30",965202,2.198,215.2,3.675,0.34,12.68,105.6073,13.63,14.66,60.25,0,110.6,13.31,14.43,177.2
"2009-06-11 00:50:00",965203,3.159,217.3,9.25,1.201,15.38,105.5915,13.59,14.83,60.43,0,110.6,13.27,14.39,179.3
"2009-06-11 00:50:30",965204,1.245,198,12.93,0.212,12.99,105.5746,13.54,14.66,60.12,0,110.6,13.31,14.34,160.0
"2009-06-11 00:51:00",965205,1.97,213.1,11.45,1.205,14.52,105.574,13.54,14.78,59.97,0,110.6,13.27,14.34,175.1
"2009-06-11 00:51:30",965206,3.373,229.9,11.31,1.45,14.99,105.5743,13.54,14.75,59.94,0,110.6,13.27,14.34,191.9
"2009-06-11 00:52:00",965207,1.888,222.1,10.37,0.961,12.53,105.5738,13.54,14.66,60.1,0,110.6,13.27,14.34,184.1
"2009-06-11 00:52:30",965208,1.303,205.4,22.72,0.387,12.32,105.5735,13.54,14.72,60.25,0,110.6,13.3,14.34,167.4
"2009-06-11 00:53:00",965209,2.393,226.5,7.384,1.141,13.41,105.5656,13.52,14.59,59.9,0,110.6,13.26,14.32,188.5
"2009-06-11 00:53:30",965210,2.067,209.7,5.545,0.383,11.23,105.5555,13.49,14.56,59.97,0,110.6,13.3,14.29,171.7
"2009-06-11 00:54:00",965211,2.046,209.1,3.62,0.123,11.18,105.5468,13.47,14.54,60.73,0,110.6,13.3,14.27,171.1
"2009-06-11 00:54:30",965212,1.9,229.7,16.96,0.18,11.58,105.5423,13.46,14.55,60.89,0,110.6,13.3,14.26,191.7
"2009-06-11 00:55:00",965213,1.546,240.7,15.48,0.261,11.96,105.5459,13.47,14.54,60.32,0,110.6,13.3,14.27,202.7
"2009-06-11 00:55:30",965214,1.61,224,17.57,0.18,12.24,105.5471,13.47,14.54,60.03,0,110.6,13.3,14.27,186.0
"2009-06-11 00:56:00",965215,0.706,224.3,9.71,0.343,12.45,105.5476,13.47,14.5,60.24,0,110.6,13.31,14.27,186.3
"2009-06-11 00:56:30",965216,0.518,269.5,28.01,0.508,12.85,105.5413,13.46,14.5,60.4,0,110.5,13.31,14.26,231.5
"2009-06-11 00:57:00",965217,1.723,284,14.18,1.026,14.02,105.5254,13.42,14.6,60.27,0,110.5,13.27,14.22,246.0
"2009-06-11 00:57:30",965218,2.654,279,6.464,1.461,14.7,105.5275,13.42,14.5,59.73,0,110.5,13.27,14.22,241.0
"2009-06-11 00:58:00",965219,2.441,276.5,9.3,1.301,15.52,105.5295,13.43,14.71,59.81,0,110.5,13.27,14.23,238.5
"2009-06-11 00:58:30",965220,1.979,258.2,11.35,1.252,13.72,105.5106,13.38,14.44,59.61,0,110.5,13.27,14.18,220.2
"2009-06-11 00:59:00",965221,1.372,252.1,9.2,0.291,12.34,105.5074,13.37,14.43,59.85,0,110.5,13.31,14.17,214.1
"2009-06-11 00:59:30",965222,1.853,257.6,10.3,1.094,12.96,105.5074,13.37,14.52,60.22,0,110.5,13.26,14.17,219.6
"2009-06-11 01:00:00",965223,3.673,274,7.581,1.005,16.38,105.5002,13.35,14.51,60.22,0,110.5,13.26,14.15,236.0
"2009-06-11 01:00:30",965224,1.529,255.1,6.74,0.663,12.03,105.4771,13.29,14.48,60.13,0,110.5,13.26,14.09,217.1
"2009-06-11 01:01:00",965225,2.241,258.2,12.05,1.143,13.15,105.4748,13.29,14.42,60.07,0,110.5,13.26,14.09,220.2
"2009-06-11 01:01:30",965226,1.563,248.6,10.43,0.167,11.54,105.4717,13.28,14.32,59.85,0,110.5,13.3,14.08,210.6
"2009-06-11 01:02:00",965227,1.796,237.7,5.099,0.124,11.5,105.4483,13.22,14.32,59.66,0,110.5,13.3,14.02,199.7
"2009-06-11 01:02:30",965228,1.673,234.6,7.135,0.147,11.74,105.441,13.2,14.3,59.63,0,110.5,13.3,14.00,196.6
"2009-06-11 01:03:00",965229,1.462,241.8,8.03,0.299,12.12,105.441,13.2,14.26,59.66,0,110.5,13.3,14.00,203.8
"2009-06-11 01:03:30",965230,1.507,237.5,3.799,0.215,12.44,105.4351,13.19,14.24,60,0,110.5,13.3,13.98,199.5
"2009-06-11 01:04:00",965231,1.977,210.5,11.25,0.288,12.64,105.4112,13.12,14.22,60.33,0,110.5,13.31,13.92,172.5
"2009-06-11 01:04:30",965232,2.032,218.3,13.76,0.421,12.91,105.3977,13.09,14.2,60.67,0,110.5,13.31,13.89,180.3
"2009-06-11 01:05:00",965233,2.672,209,19.75,1.097,14.74,105.3734,13.03,14.32,61.49,0,110.5,13.27,13.83,171.0
"2009-06-11 01:05:30",965234,3.405,191.4,15,1.414,16.93,105.3734,13.03,14.35,61.43,0,110.5,13.27,13.83,153.4
"2009-06-11 01:06:00",965235,2.932,183.7,7.512,1.127,13.54,105.361,13,14.08,61.69,0,110.5,13.28,13.79,145.7
"2009-06-11 01:06:30",965236,1.852,206.2,8.74,0.378,12.09,105.3402,12.94,14.1,62.48,0,110.5,13.31,13.74,168.2
"2009-06-11 01:07:00",965237,3.9,204.3,12.09,1.445,14.58,105.3396,12.94,14.2,62.96,0,110.4,13.28,13.74,166.3
"2009-06-11 01:07:30",965238,4.347,188.3,7.588,1.219,13.49,105.3396,12.94,14.24,63.9,0,110.5,13.28,13.74,150.3
"2009-06-11 01:08:00",965239,4.764,187.6,6.392,1.377,14.24,105.3396,12.94,14.07,65.29,0,110.5,13.28,13.74,149.6
"2009-06-11 01:08:30",965240,3.474,185.4,1.886,0.072,11.52,105.3377,12.94,13.99,66.32,0,110.5,13.31,13.73,147.4
"2009-06-11 01:09:00",965241,3.272,199.6,5.686,0.106,11.15,105.3261,12.91,14,66.86,0,110.5,13.31,13.70,161.6
"2009-06-11 01:09:30",965242,3.333,205.1,2.898,0.078,11.35,105.3137,12.88,13.99,66.94,0,110.5,13.32,13.67,167.1
"2009-06-11 01:10:00",965243,3.226,201.1,0.546,0.043,11.44,105.3091,12.86,13.97,67.06,0,110.5,13.32,13.66,163.1
"2009-06-11 01:10:30",965244,3.297,202,1.653,0.056,11.8,105.313,12.87,13.97,67.23,0,110.5,13.32,13.67,164.0
"2009-06-11 01:11:00",965245,3.263,205.1,0.856,0.088,11.86,105.3147,12.88,13.97,67.38,0,110.5,13.32,13.67,167.1
"2009-06-11 01:11:30",965246,3.368,206.5,1.186,0.067,12.33,105.3159,12.88,13.94,67.47,0,110.5,13.32,13.68,168.5
"2009-06-11 01:12:00",965247,3.631,213.1,5.157,0.685,13.29,105.3177,12.89,14.06,67.64,0,110.4,13.29,13.68,175.1
"2009-06-11 01:12:30",965248,4.115,215.7,5.963,1.194,14.06,105.3186,12.89,14.03,67.57,0,110.5,13.29,13.68,177.7
"2009-06-11 01:13:00",965249,4.87,223.2,6.824,1.345,16.58,105.3233,12.9,14.17,67.69,0,110.5,13.29,13.70,185.2
"2009-06-11 01:13:30",965250,4.798,223.2,7.45,1.306,16.14,105.3228,12.9,14.23,67.92,0,110.4,13.29,13.70,185.2
"2009-06-11 01:14:00",965251,4.199,223.2,6.619,1.363,14.27,105.3269,12.91,14.07,67.79,0,110.5,13.28,13.71,185.2
"2009-06-11 01:14:30",965252,4.385,228.9,6.148,1.386,14.16,105.3275,12.91,14.05,67.69,0,110.4,13.28,13.71,190.9
"2009-06-11 01:15:00",965253,3.221,228.6,3.826,0.158,11.69,105.3311,12.92,13.93,66.91,0,110.5,13.32,13.72,190.6
"2009-06-11 01:15:30",965254,2.928,233.2,4.578,0.173,11.55,105.3308,12.92,13.94,66.46,0,110.5,13.32,13.72,195.2
"2009-06-11 01:16:00",965255,2.876,226.8,3.27,0.223,11.71,105.3319,12.92,13.93,66.26,0,110.5,13.32,13.72,188.8
"2009-06-11 01:16:30",965256,2.838,232.1,2.04,0.097,12.25,105.3289,12.91,13.94,66.49,0,110.5,13.32,13.71,194.1
"2009-06-11 01:17:00",965257,2.83,225.5,2.347,0.096,12.47,105.3293,12.92,13.91,66.06,0,110.5,13.32,13.71,187.5
"2009-06-11 01:17:30",965258,3.088,226.6,2.289,0.111,12.84,105.329,12.91,13.89,66.29,0,110.4,13.32,13.71,188.6
"2009-06-11 01:18:00",965259,4.037,231.1,6.285,1.252,14.44,105.32,12.89,13.94,66.4,0,110.5,13.28,13.69,193.1
"2009-06-11 01:18:30",965260,4.419,232.9,5.349,1.134,15.2,105.3113,12.87,14.07,66.39,0,110.4,13.28,13.67,194.9
"2009-06-11 01:19:00",965261,5.532,235.8,7.502,1.21,16.19,105.3076,12.86,14.12,66.65,0,110.5,13.28,13.66,197.8
"2009-06-11 01:19:30",965262,5.36,230.5,6.958,1.384,15.77,105.3076,12.86,14.09,66.52,0,110.5,13.28,13.66,192.5
"2009-06-11 01:20:00",965263,3.916,221.3,8.38,1.58,14.46,105.3076,12.86,13.95,66.11,0,110.5,13.28,13.66,183.3
"2009-06-11 01:20:30",965264,3.705,228.7,19.4,1.466,14.47,105.3076,12.86,14.07,65.71,0,110.4,13.28,13.66,190.7
"2009-06-11 01:21:00",965265,2.616,235.1,3.731,0.138,11.74,105.3076,12.86,13.87,65.37,0,110.4,13.32,13.66,197.1
"2009-06-11 01:21:30",965266,2.702,233.8,8.93,0.152,11.6,105.3062,12.86,13.87,65.5,0,110.4,13.32,13.65,195.8
"2009-06-11 01:22:00",965267,2.891,220.4,4.238,0.184,11.71,105.3009,12.84,13.87,65.84,0,110.4,13.32,13.64,182.4
"2009-06-11 01:22:30",965268,2.958,219.4,2.604,0.148,12.12,105.2952,12.83,13.86,66.93,0,110.4,13.32,13.62,181.4
"2009-06-11 01:23:00",965269,2.885,224.9,3.056,0.314,12.64,105.2775,12.78,13.84,65.4,0,110.4,13.33,13.58,186.9
"2009-06-11 01:23:30",965270,3.063,222.3,5.432,0.223,13.4,105.2738,12.77,13.93,65.39,0,110.4,13.33,13.57,184.3
"2009-06-11 01:24:00",965271,4.517,225.1,6.922,1.236,15.11,105.2738,12.77,13.87,66.16,0,110.4,13.29,13.57,187.1
"2009-06-11 01:24:30",965272,4.487,222.8,8.08,1.344,15.68,105.2738,12.77,14.04,67.67,0,110.4,13.29,13.57,184.8
"2009-06-11 01:25:00",965273,4.987,235.6,5.868,1.165,16.79,105.2738,12.77,14.07,67.74,0,110.4,13.29,13.57,197.6
"2009-06-11 01:25:30",965274,3.556,220.4,6.3,0.928,14.02,105.2738,12.77,14.06,67.54,0,110.4,13.29,13.57,182.4
"2009-06-11 01:26:00",965275,4.324,221.2,6.895,1.23,13.85,105.2738,12.77,13.84,68.17,0,110.5,13.29,13.57,183.2
"2009-06-11 01:26:30",965276,3.773,219.6,6.44,1.136,13.34,105.2736,12.77,13.97,68.92,0,110.4,13.29,13.57,181.6
"2009-06-11 01:27:00",965277,3.269,216.5,2.37,0.072,11.75,105.2671,12.76,13.79,69.21,0,110.4,13.33,13.55,178.5
"2009-06-11 01:27:30",965278,3.277,213.2,2.111,0.097,11.77,105.2479,12.71,13.79,69.48,0,110.4,13.33,13.50,175.2
"2009-06-11 01:28:00",965279,3.197,213.5,2.284,0.075,12.19,105.24,12.69,13.78,69.61,0,110.4,13.33,13.48,175.5
"2009-06-11 01:28:30",965280,3.794,219.5,7.182,1.141,13.87,105.2406,12.69,13.84,69.74,0,110.4,13.29,13.48,181.5
"2009-06-11 01:29:00",965281,3.552,221.1,4.477,1.017,13.88,105.2403,12.69,13.88,69.55,0,110.4,13.29,13.48,183.1
"2009-06-11 01:29:30",965282,4.072,219.1,4.424,1.258,14.67,105.2412,12.69,13.8,68.62,0,110.4,13.29,13.49,181.1
"2009-06-11 01:30:00",965283,3.905,224,5.718,1.454,14.98,105.2406,12.69,13.93,68.63,0,110.4,13.29,13.48,186.0
"2009-06-11 01:30:30",965284,4.772,228.7,6.781,1.234,16.73,105.2357,12.68,13.95,68.56,0,110.5,13.29,13.47,190.7
"2009-06-11 01:31:00",965285,2.711,217,3.35,0.539,12.54,105.2222,12.64,13.75,68.22,0,110.4,13.29,13.44,179.0
"2009-06-11 01:31:30",965286,4.746,217.5,5.736,1.494,14.55,105.2175,12.63,13.86,68.17,0,110.4,13.29,13.43,179.5
"2009-06-11 01:32:00",965287,3.381,210.9,2.886,0.092,12.49,105.2198,12.64,13.85,68.74,0,110.4,13.29,13.43,172.9
"2009-06-11 01:32:30",965288,4.058,216,6.139,1.11,13.4,105.2267,12.65,13.74,68.94,0,110.4,13.29,13.45,178.0
"2009-06-11 01:33:00",965289,3.469,211.3,1.2,0.051,12.28,105.2308,12.66,13.69,68.98,0,110.4,13.33,13.46,173.3
"2009-06-11 01:33:30",965290,3.444,213.5,2.394,0.115,12.33,105.2325,12.67,13.68,68.52,0,110.4,13.33,13.46,175.5
"2009-06-11 01:34:00",965291,3.703,214.9,3.457,0.851,12.81,105.2262,12.65,13.72,68.26,0,110.4,13.29,13.45,176.9
"2009-06-11 01:34:30",965292,4.376,221.9,7.908,1.223,14.66,105.2085,12.61,13.77,67.83,0,110.4,13.29,13.40,183.9
"2009-06-11 01:35:00",965293,3.374,217.9,0.671,0.076,12.71,105.2077,12.6,13.65,67.97,0,110.4,13.33,13.40,179.9
"2009-06-11 01:35:30",965294,4.027,219.5,5.618,1.206,14.37,105.208,12.6,13.83,68.57,0,110.4,13.29,13.40,181.5
"2009-06-11 01:36:00",965295,5.113,227.2,8.35,1.199,16.41,105.208,12.6,13.84,68.57,0,110.4,13.29,13.40,189.2
"2009-06-11 01:36:30",965296,3.473,216.3,1.423,0.267,12.55,105.2077,12.6,13.62,67.54,0,110.4,13.33,13.40,178.3
"2009-06-11 01:37:00",965297,4.09,220.6,5.425,1.084,13.02,105.2068,12.6,13.61,68.09,0,110.4,13.29,13.40,182.6
"2009-06-11 01:37:30",965298,3.922,223.4,6.61,1.026,13.69,105.1978,12.58,13.76,67.71,0,110.4,13.29,13.37,185.4
"2009-06-11 01:38:00",965299,4.215,227.7,8.19,1.312,13.86,105.1857,12.55,13.6,66.45,0,110.4,13.29,13.34,189.7
"2009-06-11 01:38:30",965300,3.165,224.2,2.399,0.087,12.47,105.1744,12.52,13.59,66.15,0,110.4,13.33,13.31,186.2
"2009-06-11 01:39:00",965301,3.172,224.2,2.739,0.123,12.62,105.1742,12.52,13.57,65.73,0,110.4,13.34,13.31,186.2
"2009-06-11 01:39:30",965302,4.277,230.1,6.151,1.334,15,105.1742,12.52,13.71,65.61,0,110.4,13.31,13.31,192.1
"2009-06-11 01:40:00",965303,3.371,228.8,2.94,0.169,13.08,105.1742,12.52,13.62,65.35,0,110.4,13.34,13.31,190.8
"2009-06-11 01:40:30",965304,3.322,224.6,2.667,0.125,12.81,105.1742,12.52,13.56,65.61,0,110.4,13.34,13.31,186.6
"2009-06-11 01:41:00",965305,4.392,235,7.344,1.362,15.17,105.1742,12.52,13.67,66.06,0,110.4,13.31,13.31,197.0
"2009-06-11 01:41:30",965306,5.148,238.9,6.549,1.276,16.57,105.1742,12.52,13.8,66.16,0,110.4,13.31,13.31,200.9
"2009-06-11 01:42:00",965307,3.153,235.8,2.474,0.166,12.6,105.1725,12.51,13.53,65.7,0,110.4,13.34,13.31,197.8
"2009-06-11 01:42:30",965308,3.259,235.5,3.201,0.151,12.37,105.1691,12.51,13.52,65.47,0,110.4,13.34,13.30,197.5
"2009-06-11 01:43:00",965309,3.08,236.8,3.602,0.522,12.41,105.162,12.49,13.53,65.01,0,110.4,13.31,13.28,198.8
"2009-06-11 01:43:30",965310,3.615,236.3,7.655,1.292,14.53,105.1575,12.48,13.71,64.8,0,110.4,13.31,13.27,198.3
"2009-06-11 01:44:00",965311,3.167,234.4,6.389,1.332,13.45,105.1522,12.46,13.52,63.95,0,110.4,13.31,13.26,196.4
"2009-06-11 01:44:30",965312,2.311,236,6.106,0.209,12.63,105.151,12.46,13.51,63.54,0,110.4,13.34,13.25,198.0
"2009-06-11 01:45:00",965313,3.223,227.2,5.709,1.088,14.32,105.1514,12.46,13.56,63.24,0,110.4,13.31,13.26,189.2
"2009-06-11 01:45:30",965314,3.72,236,9.7,1.32,14.63,105.1523,12.46,13.66,63.33,0,110.4,13.31,13.26,198.0
"2009-06-11 01:46:00",965315,2.49,230.4,3.472,0.343,12.71,105.1531,12.46,13.52,63.85,0,110.4,13.34,13.26,192.4
"2009-06-11 01:46:30",965316,2.178,232.5,3.925,0.274,12.69,105.1544,12.47,13.53,63.76,0,110.4,13.34,13.26,194.5
"2009-06-11 01:47:00",965317,2.081,234.7,5.339,0.179,12.87,105.1573,12.48,13.53,63.21,0,110.4,13.34,13.27,196.7
"2009-06-11 01:47:30",965318,2.651,231.3,7.214,1.168,15.06,105.1631,12.49,13.69,62.73,0,110.3,13.31,13.29,193.3
"2009-06-11 01:48:00",965319,3.092,240.9,7.162,1.362,16.19,105.1675,12.5,13.71,62.29,0,110.4,13.31,13.30,202.9